This is the latest recevied weather packets stored in our database for station/object IK3ZGB. If no packets are shown the sender has not sent any weather packets the latest 10 day(s).
| Time | Temp. | Humidity | Pressure | Rain* | Wind** | Luminosity | Snow |
|---|---|---|---|---|---|---|---|
| 1777805325 | 25.56° C | 50% | 1018.5 hPa | - | - | - | - |
| 1777804725 | 25.56° C | 49% | 1018.5 hPa | - | - | - | - |
| 1777804125 | 25.56° C | 50% | 1018.6 hPa | - | - | - | - |
| 1777803525 | 25° C | 49% | 1018.6 hPa | - | - | - | - |
| 1777802924 | 25.56° C | 49% | 1018.9 hPa | - | - | - | - |
| 1777802325 | 25.56° C | 49% | 1018.7 hPa | - | - | - | - |
| 1777801725 | 26.11° C | 48% | 1018.9 hPa | - | - | - | - |
| 1777801124 | 25.56° C | 49% | 1019 hPa | - | - | - | - |
| 1777800525 | 25.56° C | 50% | 1019 hPa | - | - | - | - |
| 1777799925 | 25.56° C | 48% | 1019.3 hPa | - | - | - | - |
| 1777799325 | 24.44° C | 48% | 1019.3 hPa | - | - | - | - |
| 1777798725 | 24.44° C | 50% | 1019.4 hPa | - | - | - | - |
| 1777798125 | 23.89° C | 50% | 1019.3 hPa | - | - | - | - |
| 1777797525 | 24.44° C | 49% | 1019.3 hPa | - | - | - | - |
| 1777796925 | 25° C | 50% | 1019.5 hPa | - | - | - | - |
| 1777796325 | 24.44° C | 51% | 1019.5 hPa | - | - | - | - |
| 1777795726 | 24.44° C | 51% | 1019.9 hPa | - | - | - | - |
| 1777795125 | 24.44° C | 51% | 1019.5 hPa | - | - | - | - |
| 1777794524 | 23.33° C | 51% | 1019.6 hPa | - | - | - | - |
| 1777793924 | 23.33° C | 52% | 1019.7 hPa | - | - | - | - |
| 1777793324 | 23.89° C | 51% | 1020 hPa | - | - | - | - |
| 1777792725 | 23.33° C | 51% | 1020 hPa | - | - | - | - |
| 1777792124 | 22.22° C | 52% | 1020 hPa | - | - | - | - |
| 1777791526 | 23.33° C | 52% | 1019.9 hPa | - | - | - | - |
| 1777790925 | 22.78° C | 53% | 1020.1 hPa | - | - | - | - |
* Rain since midnight (hover to see other rain measurements)
** Current wind speed in m/s (hover to see current wind gust speed)